Location: ??
(35.1714°N, 128.2806°E)
Time: 15:07:46
(UTC+00:00)

CZ-4B R/B - Pass Details

Date: 29 October 2020
Orbit: 489 x 649 km, 97.9° (Epoch: 30 November)

Event Time Altitude Azimuth Distance (km) Brightness Sun altitude
Rises 20:26:14 0° 14° (NNE) 2,787 6.5 -16.9°
Reaches altitude 10° 20:28:21 10° 17° (NNE) 1,911 5.7 -16.4°
Maximum altitude 20:32:30 72° 101° (E) 638 3.3 -15.6°
Drops below altitude 10° 20:36:49 10° 187° (S) 1,986 5.7 -14.7°
Sets 20:39:03 0° 189° (S) 2,907 6.5 -14.3°
